TimeCDT,TemperatureF,Dew PointF,Humidity,Sea Level PressureIn,VisibilityMPH,Wind Direction,Wind SpeedMPH,Gust SpeedMPH,PrecipitationIn,Events,Conditions,WindDirDegrees,DateUTC
12:23 AM,64.4,62.6,94,30.14,2.0,Calm,Calm,-,N/A,Fog,Shallow Fog,0,2013-08-23 05:23:00
12:54 AM,64.0,63.0,96,30.14,3.0,Calm,Calm,-,N/A,,Clear,0,2013-08-23 05:54:00
1:54 AM,64.9,63.0,93,30.14,8.0,NE,3.5,-,N/A,,Clear,50,2013-08-23 06:54:00
2:54 AM,63.0,61.0,93,30.13,8.0,Calm,Calm,-,N/A,,Clear,0,2013-08-23 07:54:00
3:54 AM,62.1,60.1,93,30.14,9.0,Calm,Calm,-,N/A,,Clear,0,2013-08-23 08:54:00
4:54 AM,62.1,59.0,90,30.15,8.0,Calm,Calm,-,N/A,Fog,Shallow Fog,0,2013-08-23 09:54:00
5:54 AM,61.0,59.0,93,30.17,10.0,Calm,Calm,-,N/A,,Clear,0,2013-08-23 10:54:00
6:54 AM,61.0,57.9,90,30.18,10.0,NNE,3.5,-,N/A,,Clear,30,2013-08-23 11:54:00
7:54 AM,66.0,60.1,81,30.18,10.0,ENE,3.5,-,N/A,,Clear,60,2013-08-23 12:54:00
8:54 AM,71.1,60.1,68,30.19,10.0,ENE,3.5,-,N/A,,Clear,70,2013-08-23 13:54:00
9:54 AM,75.0,59.0,57,30.19,10.0,SE,6.9,-,N/A,,Clear,130,2013-08-23 14:54:00
10:54 AM,77.0,55.9,48,30.19,10.0,ESE,9.2,-,N/A,,Clear,110,2013-08-23 15:54:00
11:54 AM,79.0,55.0,44,30.19,10.0,SE,10.4,-,N/A,,Clear,130,2013-08-23 16:54:00
12:54 PM,81.0,55.9,42,30.17,10.0,East,12.7,16.1,N/A,,Clear,100,2013-08-23 17:54:00
1:54 PM,81.0,55.9,42,30.17,10.0,SE,11.5,17.3,N/A,,Clear,130,2013-08-23 18:54:00
2:54 PM,82.0,55.9,41,30.16,10.0,ESE,15.0,19.6,N/A,,Clear,120,2013-08-23 19:54:00
3:54 PM,82.0,54.0,38,30.15,10.0,ESE,10.4,-,N/A,,Clear,110,2013-08-23 20:54:00
4:54 PM,81.0,52.0,36,30.15,10.0,ESE,6.9,-,N/A,,Clear,110,2013-08-23 21:54:00
5:54 PM,80.1,52.0,38,30.14,10.0,East,8.1,-,N/A,,Clear,100,2013-08-23 22:54:00
6:54 PM,75.9,54.0,46,30.15,10.0,ESE,5.8,-,N/A,,Clear,120,2013-08-23 23:54:00
7:54 PM,72.0,53.1,51,30.15,10.0,East,5.8,-,N/A,,Partly Cloudy,100,2013-08-24 00:54:00
8:54 PM,71.1,50.0,47,30.17,10.0,ESE,8.1,-,N/A,,Partly Cloudy,110,2013-08-24 01:54:00
9:54 PM,69.1,50.0,51,30.19,10.0,East,6.9,-,N/A,,Partly Cloudy,100,2013-08-24 02:54:00
10:54 PM,66.0,51.1,59,30.19,10.0,ESE,5.8,-,N/A,,Scattered Clouds,110,2013-08-24 03:54:00
11:54 PM,66.0,52.0,60,30.19,10.0,ESE,5.8,-,N/A,,Partly Cloudy,110,2013-08-24 04:54:00